Weather History for Topeka, KS

Change the Weather History Date:

Tuesday, September 10, 2013

  Actual Average Record
Temperature  
Mean Temperature 86 °F 71 °F  
Max Temperature 97 °F 83 °F 103 °F (1936)
Min Temperature 74 °F 59 °F 36 °F (1976)
Degree Days  
Heating Degree Days 0 1  
Month to date heating degree days 0 5  
Since 1 July heating degree days 0 7  
Cooling Degree Days 21 7  
Month to date cooling degree days 145 81  
Year to date cooling degree days 1439 1309  
Growing Degree Days 35 (Base 50)    
Moisture  
Dew Point 62 °F    
Average Humidity 50    
Maximum Humidity 68    
Minimum Humidity 31    
Precipitation  
Precipitation 0.00 in 0.13 in 1.11 in (2006)
Month to date precipitation 0.29 1.23  
Year to date precipitation 24.76 27.80  
Snow  
Snow 0.00 in 0.00 in 0.00 in ()
Month to date snowfall 0.0 0.0  
Year to date snowfall 24.2 11.3  
Since 1 July snowfall 0.0 0.0  
Snow Depth 0.00 in    
Sea Level Pressure  
Sea Level Pressure 29.97 in    
Wind  
Wind Speed 10 mph (SSW)    
Max Wind Speed 20 mph    
Max Gust Speed 26 mph    
Visibility 10 miles    
Events      
T = Trace of Precipitation, MM = Missing Value Source: NWS Daily Summary

Daily Weather History Graph

Daily Weather History Graph

Search for Another Location

Airport:

Trip Planner

Search our weather history database for the weather conditions in past years. The results will help you decide how hot, cold, wet, or windy it might be!

Date:

Astronomy

Sep. 10, 2013 Rise Set
Actual Time 6:59 AM CDT 7:38 PM CDT
Civil Twilight 6:32 AM CDT 8:05 PM CDT
Nautical Twilight 6:00 AM CDT 8:37 PM CDT
Astronomical Twilight 5:27 AM CDT 9:09 PM CDT
Moon 12:23 PM CDT (9/10) 10:45 PM CDT (9/10)
Length of Visible Light 13h 32m
Length of Day
12h 38m
Waxing Crescent, 28% of the Moon is Illuminated
Sep 10
Waxing Crescent
Sep 12
First Quarter
Sep 19
Full
Sep 26
Last Quarter
Oct 4
New

Hourly Weather History & Observations

Time (CDT) Temp. Heat Index Dew Point Humidity Pressure Visibility Wind Dir Wind Speed Gust Speed Precip Events Conditions
12:53 AM 79.0 °F - 61.0 °F 54% 29.91 in 10.0 mi South 5.8 mph - N/A   Clear
1:53 AM 77.0 °F - 61.0 °F 58% 29.92 in 10.0 mi South 5.8 mph - N/A   Clear
2:53 AM 75.9 °F - 61.0 °F 60% 29.93 in 10.0 mi South 5.8 mph - N/A   Clear
3:53 AM 75.0 °F - 62.1 °F 64% 29.94 in 10.0 mi South 6.9 mph - N/A   Clear
4:53 AM 73.9 °F - 62.1 °F 66% 29.94 in 10.0 mi SSW 4.6 mph - N/A   Clear
5:53 AM 73.9 °F - 62.1 °F 66% 29.95 in 10.0 mi South 6.9 mph - N/A   Clear
6:53 AM 73.9 °F - 62.1 °F 66% 29.97 in 10.0 mi South 5.8 mph - N/A   Clear
7:53 AM 75.0 °F - 62.1 °F 64% 29.99 in 10.0 mi South 9.2 mph - N/A   Clear
8:53 AM 79.0 °F - 63.0 °F 58% 30.00 in 10.0 mi SSW 11.5 mph - N/A   Clear
9:53 AM 84.0 °F 84.9 °F 63.0 °F 49% 30.01 in 10.0 mi SSW 8.1 mph - N/A   Clear
10:53 AM 88.0 °F 89.3 °F 64.0 °F 45% 30.01 in 10.0 mi SSW 15.0 mph 21.9 mph N/A   Clear
11:53 AM 91.9 °F 93.3 °F 64.0 °F 39% 30.01 in 10.0 mi SW 13.8 mph 21.9 mph N/A   Clear
12:53 PM 93.9 °F 95.6 °F 64.0 °F 37% 30.00 in 10.0 mi SSW 12.7 mph 26.5 mph N/A   Clear
1:53 PM 95.0 °F 95.6 °F 62.1 °F 33% 29.99 in 10.0 mi SSW 15.0 mph 23.0 mph N/A   Scattered Clouds
2:53 PM 93.9 °F 94.0 °F 61.0 °F 33% 29.98 in 10.0 mi SSW 15.0 mph 23.0 mph N/A   Scattered Clouds
3:53 PM 96.1 °F 96.9 °F 62.1 °F 32% 29.96 in 10.0 mi SSW 12.7 mph 23.0 mph N/A   Scattered Clouds
4:53 PM 95.0 °F 95.2 °F 61.0 °F 32% 29.96 in 10.0 mi SSW 13.8 mph - N/A   Scattered Clouds
5:53 PM 93.9 °F 94.0 °F 61.0 °F 33% 29.95 in 10.0 mi South 13.8 mph 23.0 mph N/A   Clear
6:53 PM 93.0 °F 93.0 °F 61.0 °F 34% 29.95 in 10.0 mi South 10.4 mph - N/A   Clear
7:53 PM 89.1 °F 89.0 °F 61.0 °F 39% 29.97 in 10.0 mi South 6.9 mph - N/A   Clear
8:53 PM 86.0 °F 86.8 °F 63.0 °F 46% 29.99 in 10.0 mi South 9.2 mph - N/A   Clear
9:53 PM 82.9 °F 83.7 °F 62.1 °F 49% 30.01 in 10.0 mi South 6.9 mph - N/A   Clear
10:53 PM 80.1 °F 81.2 °F 62.1 °F 54% 30.03 in 10.0 mi South 6.9 mph - N/A   Clear
11:53 PM 78.1 °F - 62.1 °F 58% 30.04 in 10.0 mi South 5.8 mph - N/A   Clear